Find Starlink 31559

NORAD ID: 59358 Int'l Des: 2024-060 Owner: SPXS Country: US Constellation: starlink operational
LEOCIRCULAR

現在のビュー

3D地球を読み込み中...

About Starlink 31559

Starlink 31559 (NORAD 59358) is a starlink constellation satellite (v2 mini) launched Mar 31, 2024 by SPXS of US. It operates in LEO, CIRCULAR orbit with a mass of 730.00 kg.

次回通過

Passes for default location (London). Set your location on the main map for personalized predictions.

高度履歴

Loading altitude history...

軌道要素

1 59358U 24060L 26265.23653113 .00000189 00000-0 16409-4 0 9999
2 59358 43.0032 229.7344 0001402 268.5206 91.5486 15.27577280140126
Epoch: Sep 22, 2026 • Age: 24 hours

現在のステータス

高度 483.3 km
遠地点 / 近地点 N/A
速度 7.63 km/s
衛星直下点 -4.53°S, 139.48°E
打ち上げ日 Mar 31, 2024
運用期間 2.4 years
タイプ internet

技術仕様

分類 Payload
質量 730.00 kg
乾燥質量 700.00 kg
長さ 0.30 m
スパン 29.00 m
形状 ? Box + pan
製造者 SPXS
バスタイプ Starlink V2M
フェーズステータス In Orbit
所有者/国 SPXS/US

Most Searched